D8954 Weather Reports


Display with metric or nautical units.
time (UTC)temp
F
wind
direction
speed
MPH
gust
MPH
rain 1hr
in
rain 24hr
in
rain mn
in
humidity
%
barometer
mb
20260508121005 58 154 1.0 6.0 0.00 0.00 0.00 70 1018.2
20260508120506 58 71 2.0 5.0 0.00 0.00 0.00 68 1018.2
20260508120006 57 11 2.0 7.0 0.00 0.00 0.00 71 1018.3
20260508115505 58 101 5.0 8.0 0.00 0.00 0.00 72 1018.2
20260508115006 56 98 1.0 5.0 0.00 0.00 0.00 73 1018.2
20260508114505 56 101 2.0 8.0 0.00 0.00 0.00 71 1018.2
20260508114005 57 145 3.0 9.0 0.00 0.00 0.00 69 1018.2
20260508113506 57 89 3.0 6.0 0.00 0.00 0.00 72 1018.4
20260508113005 56 181 1.0 3.0 0.00 0.00 0.00 74 1018.5
20260508112505 55 163 2.0 7.0 0.00 0.00 0.00 72 1018.5
20260508112006 55 138 1.0 2.0 0.00 0.00 0.00 75 1018.5
20260508111506 54 78 1.0 3.0 0.00 0.00 0.00 75 1018.5
20260508111005 54 172 1.0 3.0 0.00 0.00 0.00 76 1018.5
20260508110505 53 60 2.0 5.0 0.00 0.00 0.00 77 1018.6
20260508110006 53 95 2.0 5.0 0.00 0.00 0.00 78 1018.6
20260508105505 53 50 2.0 3.0 0.00 0.00 0.00 77 1018.6
20260508105006 53 95 3.0 6.0 0.00 0.00 0.00 78 1018.7
20260508104507 53 82 3.0 7.0 0.00 0.00 0.00 79 1018.7
20260508104006 52 45 3.0 3.0 0.00 0.00 0.00 79 1018.7
20260508103505 52 64 3.0 5.0 0.00 0.00 0.00 80 1018.6
20260508103006 53 77 3.0 5.0 0.00 0.00 0.00 81 1018.7
20260508102506 52 47 3.0 5.0 0.00 0.00 0.00 81 1018.7
20260508102006 52 56 3.0 6.0 0.00 0.00 0.00 81 1018.7
20260508101506 51 88 3.0 7.0 0.00 0.00 0.00 81 1018.8
20260508101006 51 50 2.0 6.0 0.00 0.00 0.00 82 1018.7
20260508100507 51 71 3.0 6.0 0.00 0.00 0.00 82 1018.7
20260508100006 51 93 3.0 3.0 0.00 0.00 0.00 81 1018.8
20260508095505 51 74 3.0 3.0 0.00 0.00 0.00 84 1018.7
20260508094506 50 98 2.0 5.0 0.00 0.00 0.00 83 1018.8
20260508094005 50 58 3.0 6.0 0.00 0.00 0.00 83 1018.8
20260508093506 49 71 5.0 9.0 0.00 0.00 0.00 85 1018.9
20260508093006 49 65 6.0 10.0 0.00 0.00 0.00 86 1018.9
20260508092505 49 79 2.0 7.0 0.00 0.00 0.00 86 1019.0
20260508092006 49 62 3.0 7.0 0.00 0.00 0.00 86 1018.9
20260508091506 49 43 5.0 7.0 0.00 0.00 0.00 87 1018.9
20260508090505 48 170 5.0 7.0 0.00 0.00 0.00 87 1018.9
20260508090006 48 92 5.0 8.0 0.00 0.00 0.00 87 1018.8
20260508085506 48 125 4.0 8.0 0.00 0.00 0.00 87 1018.8
20260508085006 49 109 3.0 7.0 0.00 0.00 0.00 87 1018.9
20260508084505 48 50 2.0 8.0 0.00 0.00 0.00 88 1018.8
20260508084008 48 61 3.0 8.0 0.00 0.00 0.00 89 1018.9
20260508083505 48 107 3.0 7.0 0.00 0.00 0.00 89 1018.8
20260508082505 48 83 2.0 9.0 0.00 0.00 0.00 91 1018.7
20260508082006 47 87 2.0 6.0 0.00 0.00 0.00 91 1018.8
20260508081005 47 66 3.0 6.0 0.00 0.00 0.00 92 1018.7
20260508080505 47 64 3.0 6.0 0.00 0.00 0.00 93 1018.7
20260508080007 46 143 2.0 3.0 0.00 0.00 0.00 93 1018.7
20260508075506 46 97 3.0 6.0 0.00 0.00 0.00 93 1018.7
20260508075006 46 128 3.0 6.0 0.00 0.00 0.00 93 1018.6
20260508074505 46 94 1.0 6.0 0.00 0.00 0.00 93 1018.7
20260508074006 46 113 1.0 6.0 0.00 0.00 0.00 93 1018.7
20260508072509 46 94 1.0 5.0 0.00 0.00 0.00 93 1018.8
20260508072006 46 74 2.0 3.0 0.00 0.00 0.00 93 1018.8
20260508071506 46 81 2.0 6.0 0.00 0.00 0.00 93 1018.8
20260508070506 45 62 2.0 5.0 0.00 0.00 0.00 93 1018.8
20260508070006 45 26 2.0 5.0 0.00 0.00 0.00 93 1018.6
20260508065506 45 82 2.0 6.0 0.00 0.00 0.00 93 1018.7
20260508064505 45 88 2.0 3.0 0.00 0.01 0.00 93 1018.5
20260508064006 45 163 1.0 3.0 0.00 0.01 0.00 93 1018.6
20260508063506 44 164 1.0 2.0 0.00 0.01 0.00 93 1018.5
20260508063005 44 154 2.0 3.0 0.00 0.02 0.00 93 1018.4
20260508061505 44 142 2.0 6.0 0.00 0.02 0.00 93 1018.2
20260508061006 44 94 2.0 3.0 0.00 0.02 0.00 93 1018.2
20260508060505 43 143 1.0 3.0 0.00 0.03 0.00 93 1018.2
20260508060005 43 171 3.0 6.0 0.00 0.04 0.00 93 1018.1
20260508055506 43 174 3.0 6.0 0.00 0.04 0.00 93 1018.1
20260508055005 44 174 2.0 6.0 0.00 0.04 0.00 93 1018.0
20260508054006 43 156 1.0 3.0 0.00 0.05 0.00 93 1017.9
20260508053005 43 150 1.0 2.0 0.00 0.06 0.00 93 1017.9
20260508052506 43 102 1.0 1.0 0.00 0.06 0.00 93 1017.8
20260508052005 43 102 1.0 3.0 0.00 0.06 0.00 93 1017.8
20260508051006 43 178 0.0 2.0 0.00 0.06 0.00 92 1017.8
20260508050506 43 178 0.0 1.0 0.00 0.06 0.00 92 1017.7
20260508050006 42 178 0.0 2.0 0.00 0.06 0.00 92 1017.7
20260508045505 42 178 0.0 2.0 0.00 0.06 0.00 93 1017.6
20260508045005 42 177 1.0 3.0 0.00 0.06 0.00 92 1017.6
20260508044506 42 175 1.0 2.0 0.00 0.06 0.00 92 1017.6
20260508044005 42 175 1.0 2.0 0.00 0.06 0.00 92 1017.6
20260508043505 42 173 1.0 3.0 0.00 0.07 0.00 92 1017.6
20260508043006 42 120 1.0 2.0 0.00 0.07 0.00 92 1017.4
20260508042505 42 94 1.0 2.0 0.00 0.07 0.00 92 1017.4
20260508042006 42 94 0.0 2.0 0.00 0.07 0.00 92 1017.4
20260508041508 42 94 0.0 2.0 0.00 0.07 0.00 92 1017.5
20260508041005 42 93 1.0 2.0 0.00 0.07 0.00 92 1017.6
20260508040006 42 44 0.0 0.0 0.00 0.08 0.00 92 1017.6
20260508035505 42 44 0.0 0.0 0.00 0.08 0.00 92 1017.6
20260508035005 42 44 0.0 1.0 0.00 0.08 0.00 92 1017.4
20260508034506 42 44 0.0 2.0 0.00 0.08 0.00 92 1017.3
20260508034005 42 44 1.0 1.0 0.00 0.09 0.00 92 1017.2
20260508033505 42 44 0.0 1.0 0.00 0.09 0.00 92 1017.2
20260508032505 43 44 0.0 1.0 0.00 0.09 0.00 92 1017.2
20260508032006 43 44 0.0 0.0 0.00 0.09 0.00 92 1017.2
20260508031505 43 44 0.0 1.0 0.00 0.09 0.00 92 1017.2
20260508030505 43 44 0.0 1.0 0.00 0.09 0.00 92 1017.1
20260508030006 43 44 0.0 0.0 0.00 0.09 0.00 92 1017.2
20260508025506 43 44 0.0 0.0 0.00 0.09 0.00 92 1017.2
20260508025006 43 44 0.0 2.0 0.00 0.10 0.00 92 1017.1
20260508024006 43 44 0.0 2.0 0.00 0.11 0.00 92 1017.1
20260508023505 43 44 0.0 2.0 0.00 0.11 0.00 92 1017.2
20260508023005 43 44 0.0 2.0 0.00 0.12 0.00 92 1017.3
20260508022506 43 44 0.0 0.0 0.00 0.13 0.00 92 1017.2
20260508022005 43 44 0.0 2.0 0.00 0.13 0.00 92 1017.2
20260508021506 43 44 0.0 1.0 0.00 0.14 0.00 92 1017.2
20260508021005 43 44 0.0 2.0 0.00 0.15 0.00 92 1017.2
20260508020506 43 44 0.0 1.0 0.00 0.15 0.00 92 1017.2
20260508020007 44 44 0.0 2.0 0.00 0.16 0.00 92 1017.2
20260508015505 44 44 0.0 1.0 0.00 0.16 0.00 92 1017.2
20260508015006 44 44 0.0 0.0 0.00 0.16 0.00 92 1017.2
20260508014505 44 44 0.0 0.0 0.00 0.16 0.00 92 1017.2
20260508014006 44 44 0.0 0.0 0.00 0.16 0.00 92 1017.3
20260508013505 44 44 0.0 0.0 0.00 0.16 0.00 92 1017.2
20260508013006 44 44 0.0 2.0 0.00 0.16 0.00 92 1017.2
20260508012505 44 44 0.0 1.0 0.00 0.16 0.00 92 1017.3
20260508012005 44 44 1.0 3.0 0.00 0.16 0.00 92 1017.2
20260508011005 44 5 0.0 0.0 0.00 0.16 0.00 92 1017.3
20260508010505 44 5 0.0 0.0 0.00 0.16 0.00 92 1017.2
20260508010006 44 5 1.0 2.0 0.00 0.16 0.00 92 1017.2
20260508005505 45 5 0.0 2.0 0.00 0.16 0.00 92 1017.2
20260508005005 45 3 2.0 3.0 0.00 0.17 0.00 92 1017.2
20260508003505 45 284 1.0 2.0 0.00 0.17 0.00 92 1017.4
20260508003006 45 281 0.0 2.0 0.00 0.17 0.00 92 1017.4
20260508002505 45 281 1.0 1.0 0.00 0.17 0.00 92 1017.4
20260508002005 45 281 0.0 2.0 0.00 0.17 0.00 92 1017.5
20260508001505 44 281 1.0 1.0 0.00 0.18 0.00 92 1017.5
20260508001005 43 281 0.0 2.0 0.00 0.18 0.00 92 1017.4
20260508000506 42 281 0.0 2.0 0.00 0.19 0.00 91 1017.5
20260508000005 42 281 0.0 2.0 0.00 0.20 0.00 91 1017.6
20260507235505 43 281 0.0 0.0 0.00 0.20 0.00 91 1017.6
20260507235005 43 281 0.0 1.0 0.00 0.20 0.00 91 1017.6
20260507234505 43 281 1.0 2.0 0.00 0.20 0.00 91 1017.6
20260507233506 43 281 2.0 2.0 0.00 0.21 0.00 91 1017.7
20260507232507 43 281 1.0 2.0 0.00 0.22 0.00 92 1017.9
20260507232006 43 281 2.0 3.0 0.00 0.23 0.00 91 1017.7
20260507231505 43 281 1.0 2.0 0.00 0.23 0.00 91 1017.7
20260507231005 43 281 0.0 2.0 0.00 0.24 0.00 91 1017.7
20260507230505 43 281 1.0 2.0 0.00 0.24 0.00 91 1017.6
20260507230006 43 281 0.0 1.0 0.00 0.24 0.00 91 1017.6
20260507225506 43 281 0.0 1.0 0.00 0.25 0.00 91 1017.6
20260507224506 43 281 0.0 1.0 0.00 0.27 0.00 91 1017.5
20260507224005 43 281 2.0 2.0 0.00 0.28 0.00 91 1017.6
20260507223505 44 281 2.0 3.0 0.00 0.29 0.00 91 1017.6
20260507223005 44 281 0.0 2.0 0.00 0.31 0.00 91 1017.6
20260507222505 43 281 0.0 2.0 0.00 0.32 0.00 91 1017.6
20260507222005 43 281 0.0 2.0 0.00 0.34 0.00 91 1017.5
20260507221505 43 281 0.0 2.0 0.00 0.35 0.00 91 1017.6
20260507221005 44 281 0.0 2.0 0.00 0.36 0.00 91 1017.6
20260507220506 43 281 0.0 2.0 0.00 0.37 0.00 91 1017.6
20260507220006 44 281 0.0 1.0 0.00 0.38 0.00 91 1017.6
20260507215505 44 281 1.0 3.0 0.00 0.39 0.38 91 1017.5
20260507215005 44 281 2.0 3.0 0.00 0.39 0.38 91 1017.5
20260507214505 43 281 1.0 2.0 0.00 0.40 0.38 91 1017.4
20260507214005 44 281 2.0 3.0 0.00 0.41 0.38 91 1017.3
20260507213504 44 280 2.0 3.0 0.00 0.43 0.38 91 1017.3
20260507213009 44 279 2.0 3.0 0.00 0.43 0.38 91 1017.3
20260507212505 43 277 2.0 2.0 0.00 0.43 0.38 91 1017.3
20260507212005 44 277 1.0 2.0 0.00 0.43 0.38 90 1017.3
20260507211005 44 278 1.0 2.0 0.00 0.44 0.38 91 1017.2
20260507210505 44 278 1.0 2.0 0.00 0.46 0.38 90 1017.2
20260507210006 44 278 1.0 3.0 0.00 0.46 0.38 91 1017.1
20260507205005 44 280 2.0 3.0 0.00 0.46 0.38 90 1017.1
20260507204505 44 277 2.0 3.0 0.00 0.47 0.38 90 1017.1
20260507204004 44 277 1.0 1.0 0.00 0.47 0.38 90 1017.0
20260507203505 45 277 1.0 3.0 0.00 0.47 0.38 90 1017.0
20260507203005 45 277 2.0 3.0 0.00 0.47 0.38 90 1017.0
20260507202505 45 280 2.0 3.0 0.00 0.47 0.38 90 1016.9
20260507202005 45 282 2.0 3.0 0.00 0.47 0.38 90 1016.9
20260507200505 46 277 1.0 2.0 0.00 0.47 0.38 90 1016.8
20260507200006 46 279 2.0 2.0 0.00 0.47 0.38 90 1016.7
20260507195505 46 279 1.0 2.0 0.00 0.47 0.38 90 1016.6
20260507195005 46 279 2.0 2.0 0.00 0.48 0.38 90 1016.6
20260507194504 47 281 1.0 2.0 0.00 0.49 0.38 90 1016.6
20260507194005 47 281 1.0 2.0 0.00 0.49 0.38 89 1016.5
20260507193504 47 281 1.0 2.0 0.00 0.50 0.38 89 1016.5
20260507193005 47 281 2.0 2.0 0.00 0.50 0.38 89 1016.5
20260507192505 47 281 1.0 1.0 0.00 0.50 0.38 89 1016.5
20260507192004 47 281 0.0 1.0 0.00 0.50 0.38 89 1016.4
20260507191505 48 281 1.0 2.0 0.00 0.50 0.38 89 1016.4
20260507191005 48 300 1.0 3.0 0.00 0.50 0.38 89 1016.3
20260507190505 48 325 1.0 2.0 0.00 0.51 0.38 89 1016.2
20260507190006 49 326 1.0 2.0 0.00 0.52 0.38 88 1016.2
20260507185504 49 327 0.0 1.0 0.00 0.52 0.38 88 1016.2
20260507185005 49 327 0.0 1.0 0.00 0.53 0.38 88 1016.2
20260507184504 49 327 0.0 0.0 0.00 0.54 0.38 88 1016.0
20260507184005 50 327 0.0 0.0 0.00 0.55 0.38 87 1016.0
20260507183005 50 327 0.0 1.0 0.00 0.55 0.38 86 1016.0
20260507182505 50 328 0.0 0.0 0.00 0.55 0.38 87 1015.9
20260507182005 51 328 0.0 1.0 0.00 0.55 0.38 87 1015.9
20260507181505 51 328 0.0 2.0 0.00 0.55 0.38 86 1015.8
20260507181005 51 328 0.0 1.0 0.00 0.55 0.38 85 1015.8
20260507180505 51 328 0.0 0.0 0.00 0.55 0.38 85 1015.8
20260507180006 51 328 0.0 0.0 0.00 0.55 0.38 84 1015.8
20260507175505 51 328 0.0 0.0 0.00 0.55 0.38 84 1015.7
20260507175005 51 328 0.0 0.0 0.00 0.55 0.38 84 1015.7
20260507174505 52 328 0.0 0.0 0.00 0.55 0.38 83 1015.8
20260507174005 52 328 0.0 0.0 0.00 0.55 0.38 81 1015.7
20260507173505 52 328 1.0 2.0 0.00 0.55 0.38 82 1015.7
20260507173005 52 327 0.0 0.0 0.00 0.55 0.38 80 1015.7
20260507172505 52 327 0.0 0.0 0.00 0.55 0.38 81 1015.7
20260507172005 52 327 0.0 0.0 0.00 0.55 0.38 80 1015.7
20260507171505 52 327 0.0 3.0 0.00 0.55 0.38 79 1015.6
20260507171005 52 330 0.0 2.0 0.00 0.55 0.38 80 1015.5
20260507170505 52 329 0.0 2.0 0.00 0.55 0.38 80 1015.6
20260507170006 52 333 2.0 3.0 0.00 0.55 0.38 80 1015.5
20260507165005 52 9 1.0 3.0 0.00 0.55 0.38 80 1015.5
20260507164504 52 236 2.0 3.0 0.00 0.55 0.38 79 1015.5
20260507164004 53 313 1.0 3.0 0.00 0.55 0.38 78 1015.6
20260507163505 53 5 0.0 0.0 0.00 0.55 0.38 79 1015.6
20260507163005 53 34 1.0 3.0 0.00 0.55 0.38 78 1015.5
20260507162505 53 11 3.0 3.0 0.00 0.55 0.38 78 1015.5
20260507162005 53 12 2.0 3.0 0.00 0.55 0.38 77 1015.5
20260507161505 53 352 2.0 3.0 0.00 0.55 0.38 77 1015.4
20260507161005 53 24 1.0 3.0 0.00 0.55 0.38 79 1015.5
20260507155504 53 329 2.0 5.0 0.00 0.55 0.38 78 1015.5
20260507154504 52 272 0.0 3.0 0.00 0.55 0.38 79 1015.4
20260507153004 53 352 2.0 3.0 0.00 0.55 0.38 81 1015.4
20260507152505 52 317 0.0 2.0 0.00 0.55 0.38 79 1015.3
20260507150505 52 321 1.0 2.0 0.00 0.55 0.38 81 1015.3
20260507150006 52 337 2.0 3.0 0.00 0.55 0.38 80 1015.4
20260507145505 52 347 3.0 5.0 0.00 0.55 0.38 81 1015.3
20260507145005 52 323 1.0 5.0 0.00 0.55 0.38 80 1015.3
20260507144504 52 3 3.0 5.0 0.00 0.55 0.38 82 1015.3
20260507144004 52 44 3.0 5.0 0.00 0.55 0.38 80 1015.2
20260507143004 52 23 1.0 5.0 0.00 0.55 0.38 83 1015.2
20260507142505 52 13 1.0 3.0 0.00 0.55 0.38 82 1015.3
20260507142005 52 350 2.0 3.0 0.00 0.55 0.38 83 1015.3
20260507141505 51 319 3.0 7.0 0.00 0.55 0.38 82 1015.3
20260507141006 51 352 3.0 7.0 0.00 0.55 0.38 81 1015.3
20260507140505 52 266 2.0 7.0 0.00 0.55 0.38 82 1015.2
20260507140006 51 304 3.0 6.0 0.00 0.55 0.38 83 1015.2
20260507135505 51 346 2.0 5.0 0.00 0.55 0.38 83 1015.2
20260507135005 51 357 2.0 5.0 0.00 0.55 0.38 82 1015.2
20260507134505 51 21 4.0 7.0 0.00 0.55 0.38 83 1015.1
20260507134008 51 1 2.0 5.0 0.00 0.55 0.38 84 1015.2
20260507133504 50 8 3.0 3.0 0.00 0.55 0.38 84 1015.2
20260507133005 51 349 3.0 3.0 0.00 0.55 0.38 84 1015.1
20260507132505 51 316 3.0 5.0 0.00 0.55 0.38 84 1015.1
20260507132006 50 334 1.0 3.0 0.00 0.55 0.38 85 1015.1
20260507131505 50 13 1.0 5.0 0.00 0.55 0.38 85 1015.0
20260507131005 50 273 2.0 3.0 0.00 0.55 0.38 85 1015.0
20260507130505 50 327 1.0 3.0 0.00 0.55 0.38 86 1014.9
20260507130006 50 244 1.0 3.0 0.00 0.55 0.38 85 1014.9
20260507124505 50 225 2.0 5.0 0.00 0.55 0.38 85 1014.8
20260507123505 50 277 1.0 5.0 0.00 0.55 0.38 88 1014.7
20260507123005 49 205 2.0 3.0 0.00 0.55 0.38 88 1014.7
20260507122505 49 224 1.0 3.0 0.00 0.55 0.38 87 1014.7
20260507122005 48 211 1.0 3.0 0.00 0.55 0.38 88 1014.7
20260507121505 48 211 1.0 3.0 0.00 0.55 0.38 86 1014.6